| time (UTC) | temp F | wind direction | speed MPH | gust MPH | rain 1hr in | rain 24hr in | rain mn in | humidity % | barometer mb |
| 20260510224504 | 70 | 0 | 1.0 | 3.0 | 0.00 | 0.00 | 0.00 | 31 | 1013.3 |
| 20260510224004 | 71 | 10 | 1.0 | 6.0 | 0.00 | 0.00 | 0.00 | 31 | 1013.4 |
| 20260510223504 | 71 | 0 | 3.0 | 8.0 | 0.00 | 0.00 | 0.00 | 30 | 1013.4 |
| 20260510223005 | 71 | 6 | 1.0 | 3.0 | 0.00 | 0.00 | 0.00 | 30 | 1013.5 |
| 20260510222505 | 71 | 30 | 2.0 | 5.0 | 0.00 | 0.00 | 0.00 | 29 | 1013.3 |
| 20260510222004 | 71 | 0 | 2.0 | 5.0 | 0.00 | 0.00 | 0.00 | 31 | 1013.5 |
| 20260510221005 | 71 | 0 | 1.0 | 3.0 | 0.00 | 0.00 | 0.00 | 30 | 1013.6 |
| 20260510220504 | 71 | 0 | 2.0 | 10.0 | 0.00 | 0.00 | 0.00 | 30 | 1013.7 |
| 20260510215004 | 71 | 0 | 2.0 | 6.0 | 0.00 | 0.00 | 0.00 | 29 | 1013.9 |
| 20260510214505 | 71 | 0 | 3.0 | 10.0 | 0.00 | 0.00 | 0.00 | 29 | 1014.0 |
| 20260510214004 | 71 | 0 | 2.0 | 3.0 | 0.00 | 0.00 | 0.00 | 30 | 1014.0 |
| 20260510213504 | 71 | 0 | 1.0 | 3.0 | 0.00 | 0.00 | 0.00 | 30 | 1014.0 |
| 20260510213004 | 71 | 0 | 2.0 | 5.0 | 0.00 | 0.00 | 0.00 | 30 | 1014.0 |
| 20260510212504 | 71 | 0 | 2.0 | 5.0 | 0.00 | 0.00 | 0.00 | 31 | 1014.0 |
| 20260510212004 | 71 | 0 | 1.0 | 8.0 | 0.00 | 0.00 | 0.00 | 29 | 1014.1 |
| 20260510211504 | 71 | 0 | 2.0 | 10.0 | 0.00 | 0.00 | 0.00 | 31 | 1014.2 |
| 20260510211004 | 71 | 0 | 4.0 | 12.0 | 0.00 | 0.00 | 0.00 | 32 | 1014.3 |
| 20260510210004 | 70 | 0 | 2.0 | 6.0 | 0.00 | 0.00 | 0.00 | 33 | 1014.4 |
| 20260510205504 | 70 | 0 | 3.0 | 8.0 | 0.00 | 0.00 | 0.00 | 32 | 1014.4 |
| 20260510204004 | 70 | 124 | 1.0 | 3.0 | 0.00 | 0.00 | 0.00 | 30 | 1014.7 |
| 20260510203504 | 70 | 298 | 2.0 | 3.0 | 0.00 | 0.00 | 0.00 | 29 | 1014.6 |
| 20260510203004 | 71 | 354 | 3.0 | 8.0 | 0.00 | 0.00 | 0.00 | 30 | 1014.6 |
| 20260510202504 | 70 | 0 | 2.0 | 9.0 | 0.00 | 0.00 | 0.00 | 32 | 1014.6 |
| 20260510202004 | 70 | 0 | 2.0 | 6.0 | 0.00 | 0.00 | 0.00 | 32 | 1014.6 |
| 20260510201504 | 70 | 73 | 2.0 | 3.0 | 0.00 | 0.00 | 0.00 | 31 | 1014.6 |
| 20260510201004 | 69 | 105 | 1.0 | 5.0 | 0.00 | 0.00 | 0.00 | 33 | 1014.6 |
| 20260510200503 | 69 | 41 | 1.0 | 5.0 | 0.00 | 0.00 | 0.00 | 32 | 1014.5 |
| 20260510200005 | 69 | 24 | 1.0 | 5.0 | 0.00 | 0.00 | 0.00 | 33 | 1014.6 |
| 20260510195504 | 69 | 0 | 2.0 | 3.0 | 0.00 | 0.00 | 0.00 | 32 | 1014.6 |
| 20260510194004 | 69 | 310 | 2.0 | 10.0 | 0.00 | 0.00 | 0.00 | 30 | 1014.7 |
| 20260510193505 | 69 | 332 | 3.0 | 10.0 | 0.00 | 0.00 | 0.00 | 31 | 1014.7 |
| 20260510193004 | 69 | 5 | 1.0 | 9.0 | 0.00 | 0.00 | 0.00 | 33 | 1014.6 |
| 20260510192004 | 69 | 0 | 1.0 | 10.0 | 0.00 | 0.00 | 0.00 | 33 | 1014.6 |
| 20260510191004 | 69 | 0 | 2.0 | 6.0 | 0.00 | 0.00 | 0.00 | 32 | 1014.6 |
| 20260510190504 | 68 | 0 | 2.0 | 8.0 | 0.00 | 0.00 | 0.00 | 35 | 1014.6 |
| 20260510190004 | 68 | 0 | 3.0 | 9.0 | 0.00 | 0.00 | 0.00 | 34 | 1014.8 |
| 20260510185504 | 68 | 3 | 2.0 | 9.0 | 0.00 | 0.00 | 0.00 | 36 | 1014.7 |
| 20260510185004 | 68 | 19 | 4.0 | 6.0 | 0.00 | 0.00 | 0.00 | 36 | 1014.9 |
| 20260510184504 | 67 | 30 | 2.0 | 9.0 | 0.00 | 0.00 | 0.00 | 37 | 1014.9 |
| 20260510184004 | 67 | 32 | 1.0 | 3.0 | 0.00 | 0.00 | 0.00 | 37 | 1014.9 |
| 20260510183504 | 67 | 0 | 1.0 | 3.0 | 0.00 | 0.00 | 0.00 | 36 | 1014.8 |
| 20260510183005 | 67 | 0 | 2.0 | 10.0 | 0.00 | 0.00 | 0.00 | 35 | 1014.9 |
| 20260510182504 | 68 | 55 | 3.0 | 10.0 | 0.00 | 0.00 | 0.00 | 36 | 1014.9 |
| 20260510182004 | 68 | 0 | 2.0 | 12.0 | 0.00 | 0.00 | 0.00 | 37 | 1015.0 |
| 20260510181504 | 68 | 12 | 1.0 | 12.0 | 0.00 | 0.00 | 0.00 | 38 | 1015.0 |
| 20260510181005 | 68 | 0 | 2.0 | 5.0 | 0.00 | 0.00 | 0.00 | 39 | 1014.9 |
| 20260510180504 | 68 | 0 | 1.0 | 3.0 | 0.00 | 0.00 | 0.00 | 40 | 1015.1 |
| 20260510180004 | 68 | 0 | 1.0 | 5.0 | 0.00 | 0.00 | 0.00 | 38 | 1015.3 |
| 20260510175504 | 68 | 0 | 2.0 | 6.0 | 0.00 | 0.00 | 0.00 | 37 | 1015.2 |
| 20260510175005 | 68 | 0 | 4.0 | 10.0 | 0.00 | 0.00 | 0.00 | 40 | 1015.3 |
| 20260510174504 | 67 | 0 | 2.0 | 6.0 | 0.00 | 0.00 | 0.00 | 41 | 1015.3 |
| 20260510174004 | 67 | 0 | 1.0 | 3.0 | 0.00 | 0.00 | 0.00 | 40 | 1015.3 |
| 20260510173504 | 66 | 0 | 1.0 | 5.0 | 0.00 | 0.00 | 0.00 | 43 | 1015.3 |
| 20260510173004 | 66 | 0 | 3.0 | 9.0 | 0.00 | 0.00 | 0.00 | 40 | 1015.2 |
| 20260510172504 | 66 | 0 | 1.0 | 9.0 | 0.00 | 0.00 | 0.00 | 41 | 1015.2 |
| 20260510171503 | 65 | 358 | 4.0 | 12.0 | 0.00 | 0.00 | 0.00 | 43 | 1015.3 |
| 20260510171004 | 65 | 36 | 2.0 | 3.0 | 0.00 | 0.00 | 0.00 | 43 | 1015.4 |
| 20260510170504 | 65 | 358 | 1.0 | 8.0 | 0.00 | 0.00 | 0.00 | 43 | 1015.4 |
| 20260510170004 | 64 | 33 | 1.0 | 6.0 | 0.00 | 0.00 | 0.00 | 45 | 1015.4 |
| 20260510165503 | 65 | 327 | 5.0 | 9.0 | 0.00 | 0.00 | 0.00 | 43 | 1015.4 |
| 20260510165004 | 64 | 34 | 2.0 | 3.0 | 0.00 | 0.00 | 0.00 | 47 | 1015.4 |
| 20260510164004 | 64 | 0 | 1.0 | 2.0 | 0.00 | 0.00 | 0.00 | 47 | 1015.3 |
| 20260510163504 | 63 | 0 | 1.0 | 3.0 | 0.00 | 0.00 | 0.00 | 49 | 1015.3 |
| 20260510163005 | 63 | 0 | 2.0 | 3.0 | 0.00 | 0.00 | 0.00 | 50 | 1015.2 |
| 20260510162504 | 63 | 0 | 0.0 | 3.0 | 0.00 | 0.00 | 0.00 | 52 | 1015.3 |
| 20260510162004 | 62 | 0 | 1.0 | 2.0 | 0.00 | 0.00 | 0.00 | 52 | 1015.3 |
| 20260510161503 | 62 | 0 | 1.0 | 3.0 | 0.00 | 0.00 | 0.00 | 51 | 1015.3 |
| 20260510161003 | 62 | 0 | 0.0 | 3.0 | 0.00 | 0.00 | 0.00 | 51 | 1015.3 |
| 20260510160504 | 61 | 0 | 1.0 | 3.0 | 0.00 | 0.00 | 0.00 | 55 | 1015.2 |
| 20260510160004 | 61 | 0 | 1.0 | 5.0 | 0.00 | 0.00 | 0.00 | 54 | 1015.2 |
| 20260510155504 | 61 | 0 | 1.0 | 3.0 | 0.00 | 0.00 | 0.00 | 54 | 1015.1 |
| 20260510155004 | 60 | 0 | 1.0 | 5.0 | 0.00 | 0.00 | 0.00 | 53 | 1015.1 |
| 20260510154004 | 59 | 0 | 1.0 | 3.0 | 0.00 | 0.00 | 0.00 | 58 | 1015.1 |
| 20260510153504 | 59 | 0 | 1.0 | 5.0 | 0.00 | 0.00 | 0.00 | 60 | 1015.2 |
| 20260510153004 | 58 | 0 | 1.0 | 5.0 | 0.00 | 0.00 | 0.00 | 61 | 1015.2 |
| 20260510152504 | 57 | 0 | 1.0 | 3.0 | 0.00 | 0.00 | 0.00 | 61 | 1015.0 |
| 20260510152004 | 57 | 0 | 3.0 | 9.0 | 0.00 | 0.00 | 0.00 | 61 | 1015.0 |
| 20260510151004 | 57 | 0 | 2.0 | 5.0 | 0.00 | 0.00 | 0.00 | 63 | 1015.0 |
| 20260510150504 | 56 | 0 | 1.0 | 3.0 | 0.00 | 0.00 | 0.00 | 65 | 1015.0 |
| 20260510150003 | 55 | 0 | 2.0 | 9.0 | 0.00 | 0.00 | 0.00 | 66 | 1015.1 |
| 20260510144503 | 53 | 0 | 1.0 | 3.0 | 0.00 | 0.00 | 0.00 | 72 | 1015.2 |
| 20260510144004 | 52 | 0 | 1.0 | 5.0 | 0.00 | 0.00 | 0.00 | 72 | 1015.2 |
| 20260510143504 | 52 | 0 | 2.0 | 3.0 | 0.00 | 0.00 | 0.00 | 75 | 1015.1 |
| 20260510143004 | 51 | 0 | 1.0 | 3.0 | 0.00 | 0.00 | 0.00 | 77 | 1015.2 |
| 20260510142503 | 50 | 0 | 0.0 | 2.0 | 0.00 | 0.00 | 0.00 | 79 | 1015.3 |
| 20260510142003 | 49 | 0 | 0.0 | 3.0 | 0.00 | 0.00 | 0.00 | 80 | 1015.3 |
| 20260510141503 | 49 | 0 | 0.0 | 2.0 | 0.00 | 0.00 | 0.00 | 81 | 1015.3 |
| 20260510141004 | 48 | 0 | 0.0 | 1.0 | 0.00 | 0.00 | 0.00 | 82 | 1015.3 |
| 20260510140504 | 48 | 0 | 0.0 | 2.0 | 0.00 | 0.00 | 0.00 | 82 | 1015.3 |
| 20260510140004 | 48 | 0 | 2.0 | 3.0 | 0.00 | 0.00 | 0.00 | 83 | 1015.3 |
| 20260510135004 | 47 | 0 | 0.0 | 2.0 | 0.00 | 0.00 | 0.00 | 83 | 1015.2 |
| 20260510134504 | 47 | 0 | 1.0 | 3.0 | 0.00 | 0.00 | 0.00 | 83 | 1015.4 |
| 20260510134004 | 47 | 0 | 0.0 | 2.0 | 0.00 | 0.00 | 0.00 | 83 | 1015.5 |
| 20260510133503 | 47 | 0 | 0.0 | 1.0 | 0.00 | 0.00 | 0.00 | 82 | 1015.5 |
| 20260510133004 | 47 | 0 | 0.0 | 1.0 | 0.00 | 0.00 | 0.00 | 82 | 1015.4 |
| 20260510132004 | 47 | 0 | 0.0 | 3.0 | 0.00 | 0.00 | 0.00 | 82 | 1015.5 |
| 20260510130504 | 47 | 0 | 0.0 | 3.0 | 0.00 | 0.00 | 0.00 | 82 | 1015.6 |
| 20260510130004 | 47 | 0 | 0.0 | 1.0 | 0.00 | 0.00 | 0.00 | 82 | 1015.6 |
| 20260510125503 | 47 | 0 | 2.0 | 5.0 | 0.00 | 0.00 | 0.00 | 82 | 1015.7 |
| 20260510125004 | 48 | 0 | 5.0 | 10.0 | 0.00 | 0.00 | 0.00 | 82 | 1015.7 |
| 20260510124503 | 48 | 0 | 2.0 | 6.0 | 0.00 | 0.00 | 0.00 | 82 | 1015.5 |
| 20260510124003 | 48 | 0 | 1.0 | 6.0 | 0.00 | 0.00 | 0.00 | 82 | 1015.5 |
| 20260510123504 | 48 | 0 | 0.0 | 2.0 | 0.00 | 0.00 | 0.00 | 81 | 1015.5 |
| 20260510123004 | 48 | 0 | 1.0 | 8.0 | 0.00 | 0.00 | 0.00 | 81 | 1015.4 |
| 20260510122503 | 48 | 0 | 3.0 | 6.0 | 0.00 | 0.00 | 0.00 | 80 | 1015.4 |
| 20260510122003 | 48 | 0 | 1.0 | 3.0 | 0.00 | 0.00 | 0.00 | 80 | 1015.4 |
| 20260510121503 | 48 | 0 | 0.0 | 0.0 | 0.00 | 0.00 | 0.00 | 80 | 1015.4 |
| 20260510121004 | 48 | 0 | 0.0 | 0.0 | 0.00 | 0.00 | 0.00 | 80 | 1015.4 |
| 20260510120504 | 48 | 0 | 0.0 | 0.0 | 0.00 | 0.00 | 0.00 | 80 | 1015.4 |
| 20260510120005 | 48 | 0 | 0.0 | 0.0 | 0.00 | 0.00 | 0.00 | 80 | 1015.2 |
| 20260510115505 | 48 | 0 | 0.0 | 1.0 | 0.00 | 0.00 | 0.00 | 80 | 1015.2 |
| 20260510115005 | 48 | 0 | 0.0 | 0.0 | 0.00 | 0.00 | 0.00 | 80 | 1015.1 |
| 20260510114005 | 48 | 0 | 0.0 | 1.0 | 0.00 | 0.00 | 0.00 | 80 | 1014.9 |
| 20260510113505 | 48 | 0 | 0.0 | 1.0 | 0.00 | 0.00 | 0.00 | 79 | 1014.9 |
| 20260510113006 | 48 | 0 | 0.0 | 1.0 | 0.00 | 0.00 | 0.00 | 79 | 1015.0 |
| 20260510112505 | 48 | 0 | 0.0 | 1.0 | 0.00 | 0.00 | 0.00 | 79 | 1014.8 |
| 20260510112005 | 48 | 0 | 0.0 | 0.0 | 0.00 | 0.00 | 0.00 | 79 | 1014.9 |
| 20260510111504 | 48 | 0 | 0.0 | 1.0 | 0.00 | 0.00 | 0.00 | 79 | 1014.9 |
| 20260510111006 | 48 | 0 | 0.0 | 0.0 | 0.00 | 0.00 | 0.00 | 78 | 1015.0 |
| 20260510110005 | 48 | 0 | 1.0 | 3.0 | 0.00 | 0.00 | 0.00 | 78 | 1014.8 |
| 20260510105505 | 48 | 0 | 0.0 | 2.0 | 0.00 | 0.00 | 0.00 | 78 | 1014.7 |
| 20260510105005 | 48 | 0 | 0.0 | 2.0 | 0.00 | 0.00 | 0.00 | 77 | 1014.6 |
| 20260510104505 | 48 | 0 | 0.0 | 3.0 | 0.00 | 0.00 | 0.00 | 77 | 1014.5 |
| 20260510104005 | 48 | 0 | 0.0 | 3.0 | 0.00 | 0.00 | 0.00 | 77 | 1014.4 |
| 20260510103005 | 48 | 0 | 1.0 | 3.0 | 0.00 | 0.00 | 0.00 | 76 | 1014.3 |
| 20260510102505 | 48 | 0 | 0.0 | 0.0 | 0.00 | 0.00 | 0.00 | 76 | 1014.3 |
| 20260510102005 | 48 | 0 | 1.0 | 3.0 | 0.00 | 0.00 | 0.00 | 75 | 1014.3 |
| 20260510101504 | 48 | 0 | 1.0 | 5.0 | 0.00 | 0.00 | 0.00 | 75 | 1014.3 |
| 20260510100505 | 49 | 0 | 1.0 | 5.0 | 0.00 | 0.00 | 0.00 | 74 | 1014.2 |
| 20260510100005 | 49 | 0 | 0.0 | 3.0 | 0.00 | 0.00 | 0.00 | 74 | 1014.2 |
| 20260510095505 | 49 | 0 | 2.0 | 6.0 | 0.00 | 0.00 | 0.00 | 72 | 1014.2 |
| 20260510095005 | 49 | 0 | 0.0 | 3.0 | 0.00 | 0.00 | 0.00 | 71 | 1014.2 |
| 20260510094505 | 49 | 0 | 0.0 | 3.0 | 0.00 | 0.00 | 0.00 | 70 | 1014.2 |
| 20260510094005 | 49 | 0 | 1.0 | 3.0 | 0.00 | 0.00 | 0.00 | 70 | 1014.2 |
| 20260510093505 | 49 | 0 | 0.0 | 2.0 | 0.00 | 0.00 | 0.00 | 70 | 1014.1 |
| 20260510093005 | 49 | 0 | 1.0 | 3.0 | 0.00 | 0.00 | 0.00 | 70 | 1014.2 |
| 20260510092505 | 49 | 0 | 0.0 | 1.0 | 0.00 | 0.00 | 0.00 | 70 | 1014.2 |
| 20260510092005 | 49 | 0 | 1.0 | 3.0 | 0.00 | 0.00 | 0.00 | 70 | 1014.1 |
| 20260510091505 | 49 | 0 | 2.0 | 3.0 | 0.00 | 0.00 | 0.00 | 70 | 1014.1 |
| 20260510091005 | 49 | 0 | 0.0 | 2.0 | 0.00 | 0.00 | 0.00 | 70 | 1014.0 |
| 20260510090505 | 49 | 0 | 0.0 | 2.0 | 0.00 | 0.00 | 0.00 | 70 | 1014.0 |
| 20260510090005 | 49 | 0 | 0.0 | 0.0 | 0.00 | 0.00 | 0.00 | 70 | 1014.0 |
| 20260510085505 | 49 | 0 | 0.0 | 1.0 | 0.00 | 0.00 | 0.00 | 70 | 1013.8 |
| 20260510085005 | 49 | 0 | 0.0 | 0.0 | 0.00 | 0.00 | 0.00 | 70 | 1013.9 |
| 20260510084504 | 49 | 0 | 0.0 | 1.0 | 0.00 | 0.00 | 0.00 | 70 | 1013.7 |
| 20260510084005 | 49 | 0 | 0.0 | 2.0 | 0.00 | 0.00 | 0.00 | 70 | 1013.7 |
| 20260510083504 | 49 | 0 | 0.0 | 0.0 | 0.00 | 0.00 | 0.00 | 70 | 1013.7 |
| 20260510082504 | 49 | 0 | 0.0 | 0.0 | 0.00 | 0.00 | 0.00 | 70 | 1013.6 |
| 20260510082006 | 49 | 0 | 0.0 | 0.0 | 0.00 | 0.00 | 0.00 | 70 | 1013.6 |
| 20260510081505 | 49 | 0 | 0.0 | 0.0 | 0.00 | 0.00 | 0.00 | 70 | 1013.6 |
| 20260510081005 | 49 | 0 | 0.0 | 0.0 | 0.00 | 0.00 | 0.00 | 70 | 1013.6 |
| 20260510080005 | 49 | 0 | 0.0 | 1.0 | 0.00 | 0.00 | 0.00 | 70 | 1013.6 |
| 20260510075505 | 49 | 0 | 0.0 | 0.0 | 0.00 | 0.00 | 0.00 | 70 | 1013.6 |
| 20260510075005 | 49 | 0 | 0.0 | 0.0 | 0.00 | 0.00 | 0.00 | 71 | 1013.7 |
| 20260510074505 | 49 | 0 | 0.0 | 0.0 | 0.00 | 0.00 | 0.00 | 71 | 1013.7 |
| 20260510074005 | 49 | 0 | 0.0 | 0.0 | 0.00 | 0.00 | 0.00 | 72 | 1013.7 |
| 20260510072505 | 49 | 0 | 0.0 | 1.0 | 0.00 | 0.00 | 0.00 | 74 | 1013.9 |
| 20260510072005 | 49 | 0 | 0.0 | 1.0 | 0.00 | 0.00 | 0.00 | 74 | 1013.8 |
| 20260510071504 | 49 | 0 | 0.0 | 0.0 | 0.00 | 0.00 | 0.00 | 74 | 1013.8 |
| 20260510071004 | 49 | 0 | 0.0 | 2.0 | 0.00 | 0.00 | 0.00 | 74 | 1013.8 |
| 20260510070505 | 49 | 0 | 0.0 | 1.0 | 0.00 | 0.00 | 0.00 | 73 | 1013.8 |
| 20260510070005 | 49 | 0 | 0.0 | 0.0 | 0.00 | 0.00 | 0.00 | 73 | 1013.7 |
| 20260510065505 | 49 | 0 | 0.0 | 1.0 | 0.00 | 0.00 | 0.00 | 73 | 1013.7 |
| 20260510064505 | 49 | 0 | 0.0 | 1.0 | 0.00 | 0.00 | 0.00 | 73 | 1013.8 |
| 20260510064005 | 49 | 0 | 0.0 | 1.0 | 0.00 | 0.00 | 0.00 | 73 | 1013.6 |
| 20260510063005 | 49 | 0 | 0.0 | 3.0 | 0.00 | 0.00 | 0.00 | 73 | 1013.6 |
| 20260510062504 | 49 | 0 | 1.0 | 3.0 | 0.00 | 0.00 | 0.00 | 73 | 1013.6 |
| 20260510062005 | 49 | 0 | 0.0 | 0.0 | 0.00 | 0.00 | 0.00 | 73 | 1013.6 |
| 20260510061504 | 49 | 0 | 0.0 | 0.0 | 0.00 | 0.00 | 0.00 | 73 | 1013.5 |
| 20260510061006 | 49 | 0 | 0.0 | 0.0 | 0.00 | 0.00 | 0.00 | 72 | 1013.6 |
| 20260510060006 | 49 | 0 | 0.0 | 1.0 | 0.00 | 0.00 | 0.00 | 72 | 1013.6 |
| 20260510055505 | 50 | 0 | 0.0 | 1.0 | 0.00 | 0.00 | 0.00 | 72 | 1013.4 |
| 20260510055005 | 50 | 0 | 0.0 | 1.0 | 0.00 | 0.00 | 0.00 | 72 | 1013.5 |
| 20260510054504 | 49 | 0 | 0.0 | 2.0 | 0.00 | 0.00 | 0.00 | 72 | 1013.4 |
| 20260510054005 | 49 | 0 | 0.0 | 1.0 | 0.00 | 0.00 | 0.00 | 72 | 1013.4 |
| 20260510053505 | 49 | 0 | 0.0 | 2.0 | 0.00 | 0.00 | 0.00 | 72 | 1013.4 |
| 20260510053005 | 50 | 0 | 1.0 | 2.0 | 0.00 | 0.00 | 0.00 | 72 | 1013.4 |
| 20260510052505 | 50 | 0 | 0.0 | 1.0 | 0.00 | 0.00 | 0.00 | 72 | 1013.3 |
| 20260510052005 | 50 | 0 | 0.0 | 1.0 | 0.00 | 0.00 | 0.00 | 72 | 1013.3 |
| 20260510051504 | 50 | 0 | 1.0 | 3.0 | 0.00 | 0.00 | 0.00 | 72 | 1013.4 |
| 20260510051005 | 50 | 0 | 2.0 | 3.0 | 0.00 | 0.00 | 0.00 | 72 | 1013.4 |
| 20260510050504 | 50 | 0 | 0.0 | 3.0 | 0.00 | 0.00 | 0.00 | 72 | 1013.7 |
| 20260510050005 | 50 | 0 | 0.0 | 1.0 | 0.00 | 0.00 | 0.00 | 72 | 1013.9 |
| 20260510045504 | 50 | 0 | 1.0 | 5.0 | 0.00 | 0.00 | 0.00 | 71 | 1013.9 |
| 20260510045004 | 50 | 0 | 1.0 | 6.0 | 0.00 | 0.00 | 0.00 | 71 | 1013.7 |
| 20260510044504 | 50 | 0 | 1.0 | 5.0 | 0.00 | 0.00 | 0.00 | 70 | 1013.6 |
| 20260510044005 | 50 | 0 | 2.0 | 8.0 | 0.00 | 0.00 | 0.00 | 70 | 1013.7 |
| 20260510043505 | 50 | 0 | 2.0 | 9.0 | 0.00 | 0.00 | 0.00 | 70 | 1013.6 |
| 20260510043005 | 50 | 0 | 1.0 | 3.0 | 0.00 | 0.00 | 0.00 | 70 | 1013.5 |
| 20260510042504 | 50 | 0 | 3.0 | 8.0 | 0.00 | 0.00 | 0.00 | 70 | 1013.7 |
| 20260510042005 | 51 | 0 | 1.0 | 5.0 | 0.00 | 0.00 | 0.00 | 70 | 1013.7 |
| 20260510041505 | 51 | 0 | 3.0 | 12.0 | 0.00 | 0.00 | 0.00 | 69 | 1013.5 |
| 20260510041004 | 51 | 0 | 3.0 | 12.0 | 0.00 | 0.00 | 0.00 | 68 | 1013.5 |
| 20260510040505 | 51 | 0 | 2.0 | 10.0 | 0.00 | 0.00 | 0.00 | 68 | 1013.5 |
| 20260510040005 | 51 | 0 | 2.0 | 12.0 | 0.00 | 0.00 | 0.00 | 68 | 1013.4 |
| 20260510035005 | 51 | 0 | 4.0 | 12.0 | 0.00 | 0.00 | 0.00 | 66 | 1013.0 |
| 20260510034504 | 51 | 0 | 5.0 | 15.0 | 0.00 | 0.00 | 0.00 | 66 | 1013.1 |
| 20260510034005 | 51 | 0 | 4.0 | 14.0 | 0.00 | 0.00 | 0.00 | 65 | 1013.2 |
| 20260510033504 | 51 | 0 | 6.0 | 13.0 | 0.00 | 0.00 | 0.00 | 65 | 1013.2 |
| 20260510033005 | 51 | 0 | 6.0 | 14.0 | 0.00 | 0.00 | 0.00 | 65 | 1013.1 |
| 20260510032504 | 51 | 0 | 4.0 | 8.0 | 0.00 | 0.00 | 0.00 | 66 | 1013.1 |
| 20260510032005 | 51 | 0 | 2.0 | 9.0 | 0.00 | 0.00 | 0.00 | 65 | 1013.1 |
| 20260510031004 | 52 | 0 | 5.0 | 12.0 | 0.00 | 0.00 | 0.00 | 66 | 1012.7 |
| 20260510030505 | 52 | 0 | 5.0 | 12.0 | 0.00 | 0.00 | 0.00 | 66 | 1012.4 |
| 20260510030005 | 52 | 0 | 4.0 | 16.0 | 0.00 | 0.00 | 0.00 | 66 | 1012.1 |
| 20260510025504 | 52 | 0 | 4.0 | 13.0 | 0.00 | 0.00 | 0.00 | 66 | 1011.7 |
| 20260510025005 | 52 | 0 | 5.0 | 12.0 | 0.00 | 0.00 | 0.00 | 66 | 1011.2 |
| 20260510024506 | 52 | 0 | 6.0 | 17.0 | 0.00 | 0.00 | 0.00 | 65 | 1010.9 |
| 20260510024005 | 53 | 0 | 7.0 | 20.0 | 0.00 | 0.00 | 0.00 | 65 | 1010.6 |
| 20260510023505 | 53 | 0 | 5.0 | 20.0 | 0.00 | 0.00 | 0.00 | 65 | 1010.4 |
| 20260510023005 | 53 | 0 | 12.0 | 22.0 | 0.00 | 0.00 | 0.00 | 64 | 1010.2 |
| 20260510022504 | 53 | 0 | 5.0 | 14.0 | 0.00 | 0.00 | 0.00 | 65 | 1009.7 |
| 20260510022004 | 54 | 0 | 10.0 | 18.0 | 0.00 | 0.00 | 0.00 | 64 | 1009.5 |
| 20260510021005 | 54 | 0 | 7.0 | 18.0 | 0.00 | 0.00 | 0.00 | 63 | 1009.0 |
| 20260510020504 | 55 | 0 | 10.0 | 23.0 | 0.00 | 0.00 | 0.00 | 62 | 1008.7 |
| 20260510015504 | 56 | 0 | 8.0 | 13.0 | 0.00 | 0.00 | 0.00 | 60 | 1008.1 |
| 20260510015005 | 56 | 0 | 10.0 | 20.0 | 0.00 | 0.00 | 0.00 | 58 | 1008.1 |
| 20260510014505 | 57 | 0 | 9.0 | 20.0 | 0.00 | 0.00 | 0.00 | 57 | 1008.1 |
| 20260510014004 | 58 | 0 | 10.0 | 16.0 | 0.00 | 0.00 | 0.00 | 55 | 1007.8 |
| 20260510013505 | 58 | 0 | 6.0 | 15.0 | 0.00 | 0.00 | 0.00 | 53 | 1007.4 |
| 20260510013005 | 59 | 0 | 7.0 | 20.0 | 0.00 | 0.00 | 0.00 | 51 | 1006.8 |
| 20260510012505 | 60 | 0 | 10.0 | 26.0 | 0.00 | 0.00 | 0.00 | 49 | 1006.7 |
| 20260510011004 | 64 | 0 | 9.0 | 21.0 | 0.00 | 0.00 | 0.00 | 43 | 1006.0 |